Content
SEND FEEDBACK

Daily
Averages
Monthly
Summary
United States of America

ANN ARBOR, MICHIGAN


Home > North America > United States > Michigan
Elevation: 759 feet     Latitude: 42 17N     Longitude: 083 43W

WEATHER
 
SELECT A DAY
Number of Records: 204,418;   Date Range: 1/1/95 - 9/19/14
 
SHARE

PRINT THIS DATA

[ ← Previous Day ]
WEATHER ALMANAC - DECEMBER 25, 2013
[ Next Day → ]
[ °C ]   °F
Weather ElementAverageHighLow
Temperature20.3 °F25 °F (11:53 pm)6.1 °F (1:53 am)
Dewpoint15.3 °F21.9 °F (11:53 pm)1.9 °F (1:53 am)
Humidity81.1 %88 % (2:53 am)68 % (9:53 am)
Barometer30.30 in30.50 in (1:53 am)30.11 in (11:19 pm)
Wind Speed8.9 mph15 mph (6:53 am)
Wind Gust20.7 mph (11:36 am)
Weather ElementAverage
Visibility6 mi
Wind DirectionSSW (186.4 °)

Weather ElementTotal
Precipitation---
Heating Degree Days49.5 (Base 65)
Averaged from 33 records on December 25, 2013
WEATHER CONDITIONS BREAKOUT
WIND DIRECTION BREAKOUT
WEATHER BY HOUR - DECEMBER 25, 2013
[ °C ]   °F
Local TimeTemperatureDewpointHumidityBarometerVisibilityWind DirectionWind SpeedGust SpeedPrecipitationEventsConditions
1:53 AM6.1 °F1.9 °F83 %30.50 in10.0 miCalmClear
2:53 AM12.0 °F9.0 °F88 %30.49 in10.0 miSouth (190°)3.5 mphMostly Cloudy
3:53 AM15.1 °F10.9 °F84 %30.47 in10.0 miSouth (190°)5.8 mphOvercast
4:53 AM17.1 °F12.0 °F81 %30.46 in10.0 miSSW (200°)5.8 mphOvercast
5:53 AM17.1 °F12.0 °F81 %30.43 in10.0 miSouth (180°)10.4 mph19.6 mphOvercast
6:53 AM17.1 °F12.0 °F81 %30.39 in10.0 miSSE (160°)15.0 mph19.6 mphOvercast
7:53 AM18.0 °F10.9 °F74 %30.38 in10.0 miSouth (180°)8.1 mph19.6 mphOvercast
8:53 AM19.0 °F10.9 °F71 %30.39 in10.0 miSouth (180°)8.1 mphOvercast
9:53 AM19.9 °F10.9 °F68 %30.38 in10.0 miSouth (170°)10.4 mphOvercast
10:10 AM19.4 °F12.2 °F74 %30.32 in1.8 miSouth (170°)10.4 mph17.3 mph0.00 inSnowLight Snow
10:19 AM19.4 °F12.2 °F74 %30.32 in1.5 miSouth (180°)10.4 mph0.00 inSnowLight Snow
10:31 AM19.4 °F12.2 °F74 %30.31 in1.0 miSouth (180°)9.2 mph0.00 inSnowLight Snow
10:53 AM19.9 °F15.1 °F81 %30.35 in1.0 miSouth (180°)10.4 mph0.00 inSnowLight Snow
11:00 AM19.4 °F15.8 °F86 %30.30 in0.8 miSouth (180°)9.2 mph0.00 inSnowLight Snow
11:10 AM19.4 °F15.8 °F86 %30.30 in1.2 miSouth (190°)9.2 mph0.00 inSnowLight Snow
11:17 AM19.4 °F15.8 °F86 %30.29 in2.0 miSouth (180°)12.7 mph17.3 mph0.00 inSnowLight Snow
11:36 AM21.2 °F15.8 °F80 %30.28 in3.0 miSouth (190°)13.8 mph20.7 mph0.00 inSnowLight Snow
11:53 AM21.0 °F16.0 °F81 %30.32 in2.0 miSouth (190°)11.5 mph0.00 inSnowLight Snow
12:03 PM21.2 °F15.8 °F80 %30.27 in2.0 miSouth (190°)13.8 mph19.6 mph0.00 inOvercast
12:53 PM21.9 °F16.0 °F78 %30.28 in2.5 miSSW (200°)11.5 mph0.00 inHaze
1:53 PM21.9 °F17.1 °F82 %30.26 in2.5 miSSW (200°)9.2 mph18.4 mphHaze
2:53 PM23.0 °F17.1 °F78 %30.24 in2.5 miSSW (210°)10.4 mphHaze
3:53 PM23.0 °F18.0 °F81 %30.23 in2.5 miSSW (200°)8.1 mphOvercast
4:01 PM23.0 °F17.6 °F80 %30.19 in7.0 miSSW (200°)10.4 mphOvercast
4:53 PM23.0 °F18.0 °F81 %30.23 in9.0 miSSW (200°)6.9 mphOvercast
5:53 PM23.0 °F19.0 °F85 %30.23 in10.0 miSSW (210°)5.8 mphOvercast
6:53 PM24.1 °F19.0 °F81 %30.21 in10.0 miSSW (200°)5.8 mphOvercast
7:53 PM24.1 °F19.9 °F84 %30.21 in10.0 miSSW (210°)8.1 mphOvercast
8:53 PM24.1 °F19.9 °F84 %30.19 in10.0 miSSW (210°)6.9 mphOvercast
9:53 PM24.1 °F21.0 °F88 %30.18 in9.0 miSW (220°)8.1 mphOvercast
10:53 PM24.1 °F21.0 °F88 %30.15 in7.0 miSSW (200°)9.2 mph0.00 inSnowLight Snow
11:19 PM24.8 °F21.2 °F86 %30.11 in6.0 miSSW (200°)8.1 mph0.00 inSnowLight Snow
11:53 PM25.0 °F21.9 °F88 %30.13 in5.0 miSSW (210°)8.1 mph0.00 inSnowLight Snow
Hourly data recorded from KARB, located miles away from Ann Arbor, Michigan







STORIES FROM OUR PARTNERS